GW7377 Weather Reports


Display with metric or nautical units.
time (UTC)temp
F
wind
direction
speed
MPH
gust
MPH
rain 1hr
in
rain 24hr
in
rain mn
in
humidity
%
barometer
mb
20260507022210 74 72 0.0 0.0 0.00 0.00 0.00 77 1013.9
20260507021706 74 353 0.0 0.0 0.00 0.00 0.00 77 1013.9
20260507021201 75 354 0.0 0.0 0.00 0.00 0.00 76 1013.7
20260507020701 75 334 0.0 0.0 0.00 0.00 0.00 76 1013.7
20260507020156 75 323 0.0 0.0 0.00 0.00 0.00 76 1013.6
20260507015654 75 347 0.0 0.0 0.00 0.00 0.00 75 1013.7
20260507015151 75 320 0.0 0.0 0.00 0.00 0.00 75 1013.6
20260507014648 76 319 0.0 0.0 0.00 0.00 0.00 75 1013.7
20260507014144 76 243 0.0 0.0 0.00 0.00 0.00 74 1013.6
20260507013641 76 279 0.0 0.0 0.00 0.00 0.00 74 1013.5
20260507013138 76 305 0.0 0.0 0.00 0.00 0.00 73 1013.4
20260507012636 76 336 0.0 0.0 0.00 0.00 0.00 73 1013.8
20260507012130 76 245 0.0 0.0 0.00 0.00 0.00 74 1013.6
20260507011629 76 204 0.0 0.0 0.00 0.00 0.00 75 1013.6
20260507011125 76 326 0.0 0.0 0.00 0.00 0.00 76 1013.6
20260507010620 76 359 0.0 0.0 0.00 0.00 0.00 78 1013.6
20260507010116 76 197 0.0 0.0 0.00 0.00 0.00 78 1013.5
20260507005614 76 122 0.0 0.0 0.00 0.00 0.00 79 1013.4
20260507005109 76 30 0.0 0.0 0.00 0.00 0.00 79 1013.4
20260507004607 76 110 0.0 0.0 0.00 0.00 0.00 79 1013.4
20260507004104 76 86 0.0 0.0 0.00 0.00 0.00 79 1013.5
20260507003600 77 239 0.0 0.0 0.00 0.00 0.00 79 1013.4
20260507003055 77 52 0.0 1.0 0.00 0.00 0.00 79 1013.1
20260507002552 77 226 0.0 0.0 0.00 0.00 0.00 78 1013.2
20260507002048 77 249 0.0 0.0 0.00 0.00 0.00 79 1012.8
20260507001544 77 332 0.0 0.0 0.00 0.00 0.00 78 1012.9
20260507001042 77 72 0.0 0.0 0.00 0.00 0.00 77 1012.9
20260507000538 77 330 0.0 0.0 0.00 0.00 0.00 77 1017.2
20260507000033 78 299 0.0 0.0 0.00 0.00 0.00 76 1017.3
20260506235532 78 88 0.0 0.0 0.00 0.00 0.00 76 1017.3
20260506235027 78 83 0.0 0.0 0.00 0.00 0.00 75 1017.3
20260506234525 78 88 0.0 0.0 0.00 0.00 0.00 74 1017.1
20260506234022 79 76 0.0 0.0 0.00 0.00 0.00 74 1016.9
20260506233518 79 59 0.0 1.0 0.00 0.00 0.00 73 1017.0
20260506233015 79 18 0.0 0.0 0.00 0.00 0.00 72 1016.9
20260506232511 80 217 0.0 1.0 0.00 0.00 0.00 71 1017.1
20260506232007 80 6 0.0 0.0 0.00 0.00 0.00 70 1017.4
20260506231505 80 28 1.0 2.0 0.00 0.00 0.00 69 1017.2
20260506231002 80 135 0.0 0.0 0.00 0.00 0.00 70 1017.2
20260506230458 81 312 0.0 0.0 0.00 0.00 0.00 69 1017.2
20260506225955 81 127 1.0 3.0 0.00 0.00 0.00 68 1017.2
20260506225452 81 221 1.0 2.0 0.00 0.00 0.00 69 1017.6
20260506224949 81 209 0.0 1.0 0.00 0.00 0.00 70 1017.3
20260506224446 82 86 2.0 3.0 0.00 0.00 0.00 70 1017.5
20260506223942 82 174 1.0 1.0 0.00 0.00 0.00 70 1017.4
20260506223438 83 244 0.0 1.0 0.00 0.00 0.00 69 1017.5
20260506222935 84 197 1.0 2.0 0.00 0.00 0.00 67 1017.4
20260506222431 84 35 2.0 8.0 0.00 0.00 0.00 67 1017.2
20260506221928 84 29 0.0 0.0 0.00 0.00 0.00 65 1017.4
20260506221425 85 132 0.0 1.0 0.00 0.00 0.00 66 1017.2
20260506220924 86 48 2.0 8.0 0.00 0.00 0.00 64 1017.2
20260506220419 85 303 0.0 0.0 0.00 0.00 0.00 65 1017.2
20260506215916 85 154 0.0 2.0 0.00 0.00 0.00 66 1017.3
20260506215412 85 203 1.0 1.0 0.00 0.00 0.00 66 1017.2
20260506214908 85 40 0.0 0.0 0.00 0.00 0.00 65 1017.2
20260506214405 85 108 1.0 1.0 0.00 0.00 0.00 66 1017.2
20260506213903 84 312 1.0 4.0 0.00 0.00 0.00 68 1017.1
20260506213400 85 166 1.0 2.0 0.00 0.00 0.00 65 1017.2
20260506212857 85 96 3.0 6.0 0.00 0.00 0.00 66 1017.4
20260506212353 85 24 2.0 2.0 0.00 0.00 0.00 66 1017.2
20260506211848 86 330 0.0 2.0 0.00 0.00 0.00 65 1017.5
20260506211344 86 11 0.0 1.0 0.00 0.00 0.00 64 1017.5
20260506210842 86 12 0.0 1.0 0.00 0.00 0.00 63 1017.5
20260506210338 86 309 0.0 0.0 0.00 0.00 0.00 65 1017.6
20260506205836 85 315 1.0 2.0 0.00 0.00 0.00 68 1017.4
20260506205331 87 63 1.0 2.0 0.00 0.00 0.00 64 1017.3
20260506204828 87 23 1.0 3.0 0.00 0.00 0.00 65 1017.3
20260506204326 87 195 0.0 0.0 0.00 0.00 0.00 66 1017.4
20260506203823 87 198 0.0 1.0 0.00 0.00 0.00 66 1017.4
20260506203320 88 300 0.0 1.0 0.00 0.00 0.00 66 1017.4
20260506202817 87 70 1.0 2.0 0.00 0.00 0.00 66 1017.6
20260506202314 87 308 0.0 0.0 0.00 0.00 0.00 66 1017.8
20260506201810 87 246 0.0 0.0 0.00 0.00 0.00 68 1017.6
20260506201308 88 200 1.0 2.0 0.00 0.00 0.00 65 1017.8
20260506200805 88 62 1.0 2.0 0.00 0.00 0.00 65 1017.9
20260506200301 88 251 0.0 0.0 0.00 0.00 0.00 66 1018.0
20260506195757 88 159 0.0 0.0 0.00 0.00 0.00 66 1018.0
20260506195254 88 283 2.0 3.0 0.00 0.00 0.00 66 1018.0
20260506194751 89 135 0.0 0.0 0.00 0.00 0.00 66 1017.9
20260506194248 89 174 1.0 2.0 0.00 0.00 0.00 65 1018.1
20260506193746 88 6 0.0 0.0 0.00 0.00 0.00 67 1018.3
20260506193242 88 343 0.0 0.0 0.00 0.00 0.00 67 1018.3
20260506192738 88 307 0.0 0.0 0.00 0.00 0.00 66 1018.3
20260506192235 88 94 2.0 3.0 0.00 0.00 0.00 66 1018.3
20260506191732 88 21 0.0 0.0 0.00 0.00 0.00 65 1018.4
20260506191228 88 57 1.0 3.0 0.00 0.00 0.00 65 1018.6
20260506190726 88 245 0.0 1.0 0.00 0.00 0.00 64 1018.7
20260506190222 87 71 0.0 0.0 0.00 0.00 0.00 66 1018.5
20260506185719 88 20 0.0 0.0 0.00 0.00 0.00 65 1018.4
20260506185215 89 306 0.0 0.0 0.00 0.00 0.00 65 1018.6
20260506184713 88 54 0.0 0.0 0.00 0.00 0.00 65 1018.6
20260506184210 89 105 0.0 1.0 0.00 0.00 0.00 64 1018.5
20260506183707 89 57 0.0 0.0 0.00 0.00 0.00 64 1018.6
20260506183203 89 262 2.0 4.0 0.00 0.00 0.00 64 1018.7
20260506182700 90 274 0.0 0.0 0.00 0.00 0.00 63 1018.7
20260506182157 90 332 0.0 0.0 0.00 0.00 0.00 63 1018.8
20260506181655 90 226 0.0 1.0 0.00 0.00 0.00 63 1019.0
20260506181152 90 14 0.0 0.0 0.00 0.00 0.00 63 1019.0
20260506180649 90 8 0.0 0.0 0.00 0.00 0.00 57 1019.0
20260506180145 90 172 0.0 0.0 0.00 0.00 0.00 57 1018.9
20260506175642 90 299 1.0 3.0 0.00 0.00 0.00 55 1019.1
20260506175139 89 48 0.0 0.0 0.00 0.00 0.00 55 1019.1
20260506174637 89 325 0.0 0.0 0.00 0.00 0.00 55 1019.1
20260506174134 89 130 0.0 0.0 0.00 0.00 0.00 58 1019.1
20260506173631 89 245 0.0 1.0 0.00 0.00 0.00 57 1019.5
20260506173128 88 336 0.0 0.0 0.00 0.00 0.00 57 1019.4
20260506172625 88 286 0.0 1.0 0.00 0.00 0.00 58 1019.5
20260506172121 89 277 0.0 0.0 0.00 0.00 0.00 59 1019.6
20260506171619 89 140 0.0 0.0 0.00 0.00 0.00 58 1019.7
20260506171116 89 156 1.0 3.0 0.00 0.00 0.00 58 1019.6
20260506170615 89 260 0.0 2.0 0.00 0.00 0.00 56 1019.6
20260506170111 88 115 0.0 1.0 0.00 0.00 0.00 59 1019.9
20260506165609 88 350 0.0 0.0 0.00 0.00 0.00 60 1019.8
20260506165105 88 206 2.0 4.0 0.00 0.00 0.00 56 1019.7
20260506164603 88 161 0.0 0.0 0.00 0.00 0.00 60 1019.8
20260506164100 87 243 0.0 0.0 0.00 0.00 0.00 57 1019.6
20260506163555 87 23 4.0 7.0 0.00 0.00 0.00 56 1020.1
20260506163051 87 282 1.0 1.0 0.00 0.00 0.00 57 1019.9
20260506162547 87 218 1.0 2.0 0.00 0.00 0.00 60 1020.0
20260506162045 87 165 0.0 0.0 0.00 0.00 0.00 59 1020.0
20260506161542 86 227 0.0 0.0 0.00 0.00 0.00 62 1020.1
20260506161039 86 240 2.0 3.0 0.00 0.00 0.00 59 1020.1
20260506160537 87 76 0.0 0.0 0.00 0.00 0.00 61 1020.4
20260506160034 86 343 0.0 1.0 0.00 0.00 0.00 60 1020.1
20260506155532 86 263 0.0 0.0 0.00 0.00 0.00 60 1020.0
20260506153703 86 153 1.0 3.0 0.00 0.00 0.00 62 1020.1
20260506153201 85 292 1.0 2.0 0.00 0.00 0.00 61 1020.1
20260506152657 86 311 2.0 4.0 0.00 0.00 0.00 63 1020.2
20260506152155 85 238 0.0 2.0 0.00 0.00 0.00 65 1020.2
20260506151654 85 356 0.0 0.0 0.00 0.00 0.00 62 1020.3
20260506151150 84 270 0.0 0.0 0.00 0.00 0.00 64 1020.2
20260506150647 84 212 0.0 0.0 0.00 0.00 0.00 65 1020.2
20260506150144 84 272 0.0 0.0 0.00 0.00 0.00 66 1020.2
20260506145641 84 277 0.0 0.0 0.00 0.00 0.00 66 1020.0
20260506145137 83 266 0.0 0.0 0.00 0.00 0.00 67 1019.9
20260506144635 84 254 0.0 0.0 0.00 0.00 0.00 66 1019.9
20260506144131 82 310 0.0 0.0 0.00 0.00 0.00 66 1019.9
20260506143629 82 42 0.0 0.0 0.00 0.00 0.00 70 1019.9
20260506143127 83 206 0.0 0.0 0.00 0.00 0.00 68 1020.1
20260506142625 82 208 1.0 2.0 0.00 0.00 0.00 70 1019.9
20260506142123 81 54 0.0 0.0 0.00 0.00 0.00 72 1020.0
20260506141620 81 129 1.0 2.0 0.00 0.00 0.00 71 1019.9
20260506141119 80 77 0.0 0.0 0.00 0.00 0.00 72 1019.9
20260506140616 80 282 0.0 0.0 0.00 0.00 0.00 73 1020.0
20260506140113 80 168 0.0 0.0 0.00 0.00 0.00 74 1020.0
20260506135609 80 348 0.0 1.0 0.00 0.00 0.00 74 1020.0
20260506135106 79 77 0.0 0.0 0.00 0.00 0.00 74 1020.1
20260506134602 80 348 0.0 0.0 0.00 0.00 0.00 74 1020.1
20260506134058 79 44 0.0 0.0 0.00 0.00 0.00 76 1020.1
20260506133555 79 201 0.0 0.0 0.00 0.00 0.00 76 1020.2
20260506133053 78 345 0.0 0.0 0.00 0.00 0.00 74 1020.1
20260506132550 77 100 0.0 0.0 0.00 0.00 0.00 76 1020.4
20260506132047 77 17 0.0 2.0 0.00 0.00 0.00 76 1019.9
20260506131544 77 183 0.0 0.0 0.00 0.00 0.00 77 1019.9
20260506131040 77 297 0.0 0.0 0.00 0.00 0.00 77 1020.0
20260506130537 76 237 0.0 0.0 0.00 0.00 0.00 77 1019.9
20260506130035 75 232 0.0 0.0 0.00 0.00 0.00 78 1019.8
20260506125533 75 188 0.0 0.0 0.00 0.00 0.00 80 1019.7
20260506125031 74 100 0.0 0.0 0.00 0.00 0.00 80 1019.9
20260506124528 75 234 0.0 0.0 0.00 0.00 0.00 79 1019.9
20260506124026 75 248 0.0 0.0 0.00 0.00 0.00 79 1019.8
20260506123523 74 107 0.0 0.0 0.00 0.00 0.00 81 1019.7
20260506123021 73 44 0.0 0.0 0.00 0.00 0.00 82 1019.5
20260506122518 72 21 0.0 0.0 0.00 0.00 0.00 82 1019.5
20260506122016 71 154 0.0 0.0 0.00 0.00 0.00 84 1019.5
20260506121513 70 250 0.0 0.0 0.00 0.00 0.00 85 1019.5
20260506121009 69 38 0.0 0.0 0.00 0.00 0.00 88 1019.4
20260506120508 68 356 0.0 0.0 0.00 0.00 0.00 89 1019.6
20260506120005 68 329 0.0 0.0 0.00 0.00 0.00 91 1019.2
20260506115502 67 46 0.0 0.0 0.00 0.00 0.00 92 1019.2
20260506115001 66 32 0.0 0.0 0.00 0.00 0.00 93 1019.2
20260506114457 66 357 0.0 0.0 0.00 0.00 0.00 94 1019.3
20260506113956 65 6 0.0 0.0 0.00 0.00 0.00 95 1019.2
20260506113453 64 319 0.0 0.0 0.00 0.00 0.00 95 1019.1
20260506112950 64 326 0.0 0.0 0.00 0.00 0.00 95 1019.1
20260506112447 64 351 0.0 0.0 0.00 0.00 0.00 95 1019.0
20260506111944 63 359 0.0 0.0 0.00 0.00 0.00 95 1019.0
20260506111443 63 356 0.0 0.0 0.00 0.00 0.00 95 1019.0
20260506110939 63 355 0.0 0.0 0.00 0.00 0.00 95 1018.9
20260506110437 63 356 0.0 0.0 0.00 0.00 0.00 95 1018.9
20260506105933 63 359 0.0 0.0 0.00 0.00 0.00 95 1019.0
20260506105430 63 348 0.0 0.0 0.00 0.00 0.00 95 1018.9
20260506104927 63 352 0.0 0.0 0.00 0.00 0.00 95 1018.7
20260506104425 62 352 0.0 0.0 0.00 0.00 0.00 95 1018.6
20260506103923 62 354 0.0 0.0 0.00 0.00 0.00 95 1018.5
20260506103420 62 337 0.0 0.0 0.00 0.00 0.00 95 1018.5
20260506102917 62 357 0.0 0.0 0.00 0.00 0.00 95 1018.7
20260506102415 62 337 0.0 0.0 0.00 0.00 0.00 95 1018.5
20260506101912 62 348 0.0 0.0 0.00 0.00 0.00 94 1018.7
20260506101408 62 348 0.0 0.0 0.00 0.00 0.00 94 1018.5
20260506100906 62 356 0.0 0.0 0.00 0.00 0.00 94 1018.6
20260506100404 62 345 0.0 0.0 0.00 0.00 0.00 94 1018.7
20260506095901 62 355 0.0 0.0 0.00 0.00 0.00 94 1018.6
20260506095400 62 351 0.0 0.0 0.00 0.00 0.00 94 1018.7
20260506094856 62 351 0.0 0.0 0.00 0.00 0.00 93 1018.6
20260506094355 62 344 0.0 0.0 0.00 0.00 0.00 93 1018.5
20260506093852 62 349 0.0 0.0 0.00 0.00 0.00 93 1018.5
20260506093350 62 350 0.0 0.0 0.00 0.00 0.00 93 1018.5
20260506092847 62 350 0.0 0.0 0.00 0.00 0.00 93 1018.4
20260506092345 62 346 0.0 0.0 0.00 0.00 0.00 93 1018.3
20260506091841 62 351 0.0 0.0 0.00 0.00 0.00 92 1018.5
20260506091339 62 350 0.0 0.0 0.00 0.00 0.00 92 1018.4
20260506090836 62 342 0.0 0.0 0.00 0.00 0.00 92 1018.6
20260506090334 63 351 0.0 0.0 0.00 0.00 0.00 92 1018.4
20260506085830 63 354 0.0 0.0 0.00 0.00 0.00 92 1018.5
20260506085326 63 158 0.0 0.0 0.00 0.00 0.00 91 1018.4
20260506084823 63 350 0.0 0.0 0.00 0.00 0.00 91 1018.0
20260506084320 63 347 0.0 0.0 0.00 0.00 0.00 91 1018.5
20260506083817 63 346 0.0 0.0 0.00 0.00 0.00 90 1018.3
20260506083314 63 348 0.0 0.0 0.00 0.00 0.00 90 1018.5
20260506082812 64 354 0.0 0.0 0.00 0.00 0.00 90 1018.5
20260506082308 64 339 0.0 0.0 0.00 0.00 0.00 90 1018.5
20260506081805 64 348 0.0 0.0 0.00 0.00 0.00 89 1018.4
20260506081302 64 347 0.0 0.0 0.00 0.00 0.00 89 1018.3
20260506080800 63 355 0.0 0.0 0.00 0.00 0.00 90 1018.3
20260506080256 63 349 0.0 0.0 0.00 0.00 0.00 90 1018.2
20260506073240 62 4 0.0 0.0 0.00 0.00 0.00 91 1018.4
20260506072737 62 350 0.0 0.0 0.00 0.00 0.00 90 1018.5
20260506072234 62 349 0.0 0.0 0.00 0.00 0.00 90 1018.6
20260506071732 62 347 0.0 0.0 0.00 0.00 0.00 90 1018.6
20260506071230 62 354 0.0 0.0 0.00 0.00 0.00 90 1018.3
20260506070727 62 340 0.0 0.0 0.00 0.00 0.00 90 1018.4
20260506070223 62 345 0.0 0.0 0.00 0.00 0.00 91 1018.4
20260506062200 62 334 0.0 0.0 0.00 0.00 0.00 92 1018.8
20260506061656 61 334 0.0 0.0 0.00 0.00 0.00 93 1018.9
20260506061154 62 342 0.0 0.0 0.00 0.00 0.00 93 1018.8
20260506060652 61 20 0.0 0.0 0.00 0.00 0.00 93 1018.9
20260506060149 61 20 0.0 0.0 0.00 0.00 0.00 93 1019.0
20260506051121 62 20 0.0 0.0 0.00 0.00 0.00 92 1019.4
20260506050619 62 20 0.0 0.0 0.00 0.00 0.00 91 1019.6
20260506050116 62 20 0.0 0.0 0.00 0.00 0.00 91 1019.4
20260506045109 63 20 0.0 0.0 0.00 0.00 0.00 91 1019.4
20260506044607 63 20 0.0 0.0 0.00 0.00 0.00 90 1019.5
20260506044104 63 21 0.0 0.0 0.00 0.00 0.00 90 1019.4
20260506043601 63 316 0.0 0.0 0.00 0.00 0.00 91 1019.5
20260506043059 63 338 0.0 0.0 0.00 0.00 0.00 91 1019.5
20260506042558 64 330 0.0 0.0 0.00 0.00 0.00 91 1019.7
20260506042055 63 341 0.0 0.0 0.00 0.00 0.00 91 1019.7
20260506041554 63 338 0.0 0.0 0.00 0.00 0.00 90 1019.6
20260506041050 63 339 0.0 0.0 0.00 0.00 0.00 90 1019.8
20260506040548 63 343 0.0 0.0 0.00 0.00 0.00 89 1019.8
20260506040044 63 343 0.0 0.0 0.00 0.16 0.16 88 1019.7
20260506035541 64 343 0.0 0.0 0.00 0.16 0.16 87 1019.7
20260506035038 64 343 0.0 0.0 0.00 0.16 0.16 86 1019.5
20260506034535 64 341 0.0 0.0 0.00 0.16 0.16 86 1019.6
20260506034032 64 341 0.0 0.0 0.00 0.16 0.16 85 1019.5
20260506033530 65 340 0.0 0.0 0.00 0.16 0.16 85 1019.4
20260506033026 66 339 0.0 0.0 0.00 0.16 0.16 84 1019.5
20260506032524 66 313 0.0 0.0 0.00 0.16 0.16 84 1019.6
20260506032020 66 322 0.0 0.0 0.00 0.16 0.16 83 1019.3
20260506031518 66 301 0.0 0.0 0.00 0.16 0.16 83 1019.3
20260506031015 66 318 0.0 0.0 0.00 0.16 0.16 84 1019.2
20260506030513 66 327 0.0 0.0 0.00 0.16 0.16 84 1018.9
20260506030010 66 339 0.0 0.0 0.00 0.16 0.16 84 1019.0
20260506025507 66 337 0.0 0.0 0.00 0.16 0.16 84 1019.0
20260506025003 66 342 0.0 0.0 0.00 0.16 0.16 84 1018.9
20260506024500 67 337 0.0 0.0 0.00 0.16 0.16 83 1019.0
20260506023955 67 347 0.0 0.0 0.00 0.16 0.16 82 1019.0
20260506023453 68 343 0.0 0.0 0.00 0.16 0.16 80 1019.0
20260506022949 68 348 0.0 0.0 0.00 0.16 0.16 79 1018.5